[[{"header":{"parameterUnit":"m.s-1","parameterCategory":2,"la1":30.2991,"la2":30.254,"lo1":-89.0895,"lo2":-89.0444,"dy":0.0017,"dx":0.0017,"nx":28,"ny":28,"refTime":"2023-03-16T21:00:00:Z","depth":"0","parameterNumber":2,"parameterNumberName":"U-component_of_CURRENTS"},"data":[0,0,0,0,0,0,0,0,0,0,0,0,0,0,0,0,0,0,0,0,0,0,0,0,0,0,0,0,0,0,0,0,0,0,0,0,0,0,0,0,0,0,0,0,0,0,0,0,0,0,0,0,0,0,0,0,0,0,0.301,0.3011,0,0.3064,0.3064,0.3065,0.3115,0.3115,0.3116,0.3117,0.3159,0.3159,0.316,0,0,0,0,0,0,0,0,0,0,0,0,0,0.2914,0.2916,0.301,0.3011,0.3012,0.3064,0.3064,0.3065,0.3114,0.3115,0.3116,0.3117,0.3159,0.3159,0.316,0,0,0,0,0,0,0,0,0,0,0,0,0,0.2959,0.2916,0.301,0.3044,0.3048,0.3064,0.3064,0.3065,0.3114,0.3115,0.3117,0.3118,0.3159,0.3159,0.316,0.3138,0,0,0.3161,0.3162,0,0,0,0,0,0,0,0,0.2956,0.2962,0.3038,0.3042,0.3046,0.3086,0.3046,0.309,0.3114,0.3087,0.3117,0.3118,0.3134,0.3137,0.3141,0.314,0.3142,0.3162,0.3162,0.3162,0.3162,0,0,0,0,0,0,0,0.2953,0.296,0.3029,0.3039,0.3044,0.3045,0.3053,0.3054,0.3101,0.3089,0.3093,0.3103,0.3136,0.314,0.3142,0.3143,0.3162,0.3162,0.3162,0.3163,0.3216,0.3217,0,0,0,0,0,0,0.2952,0.2957,0.3027,0.3031,0.3006,0.3046,0.3055,0.307,0.3101,0.3108,0.3102,0.3105,0.3139,0.3142,0.3144,0.3198,0.3162,0.3163,0.3163,0.3215,0.3217,0.3218,0,0,0,0,0,0,0.295,0.2958,0.3025,0.2996,0.3005,0.3047,0.3063,0.307,0.308,0.3111,0.3118,0.3105,0.314,0.3143,0.3175,0.3197,0.3163,0.3163,0.3214,0.3216,0.3217,0.3255,0,0,0,0,0,0,0.2947,0.2957,0.2961,0.2997,0.3007,0.3056,0.3063,0.3071,0.3085,0.309,0.3116,0.3121,0.3141,0.3174,0.3175,0.3197,0.3164,0.3213,0.3215,0.3217,0.3252,0.3258,0.3262,0,0,0,0,0,0.2943,0.2958,0.2961,0.297,0.3015,0.3057,0.3063,0.3094,0.3084,0.3102,0.3124,0.3121,0.3188,0.3175,0.3176,0.3199,0.3211,0.3214,0.3217,0.325,0.3257,0.3262,0,0,0,0,0,0,0.2925,0.2965,0.297,0.2997,0.303,0.3067,0.3085,0.3087,0.3113,0.3117,0.313,0.3138,0.3179,0.3177,0.3162,0.3221,0.32,0.3203,0.3225,0.3231,0.3236,0.325,0.3164,0,0,0,0,0,0.2919,0.2939,0.2978,0.2999,0.3017,0.3041,0.3055,0.3077,0.3106,0.3118,0.3134,0.3155,0.3187,0.32,0.3227,0.3244,0.3245,0.3261,0.3266,0.327,0.3283,0.33,0.3308,0.3226,0.3226,0.3226,0,0,0.2917,0.2941,0.2952,0.2996,0.3021,0.3055,0.3054,0.3088,0.3118,0.3116,0.3156,0.3173,0.3197,0.3241,0.3257,0.3242,0.3294,0.3274,0.3277,0.3288,0.3303,0.3311,0.3318,0.3228,0.3227,0.3227,0,0,0.2926,0.2947,0.2966,0.2998,0.304,0.3064,0.3071,0.3108,0.3132,0.3162,0.3182,0.3216,0.3238,0.3281,0.3299,0.3339,0.3324,0.3337,0.3369,0.3385,0.3392,0.3398,0.3407,0.3414,0.3335,0.3335,0.3335,0,0.2919,0.2952,0.2979,0.3011,0.3039,0.3067,0.3098,0.3129,0.3171,0.3186,0.3185,0.3241,0.3265,0.3325,0.3357,0.3353,0.335,0.3343,0.3391,0.3397,0.3403,0.3411,0.3418,0.3337,0.3337,0.3336,0.3336,0,0.2943,0.2974,0.2995,0.3043,0.3076,0.3113,0.3162,0.3188,0.32,0.3224,0.3275,0.3313,0.3344,0.3361,0.3377,0.3432,0.3414,0.3398,0.3374,0.3413,0.3419,0.3426,0.334,0.3339,0.3339,0.3338,0,0,0.2909,0.2993,0.2998,0.3026,0.3096,0.3124,0.3179,0.3231,0.3265,0.3294,0.3332,0.3398,0.3402,0.3425,0.3444,0.3471,0.3518,0.3455,0.3455,0.3462,0.3546,0.3577,0.3586,0.3501,0.3502,0.3503,0.3533,0,0.2916,0.2974,0.3018,0.3075,0.3111,0.3161,0.3218,0.3267,0.3306,0.3353,0.3384,0.3437,0.3431,0.3457,0.348,0.3521,0.3537,0.3512,0.351,0.351,0.3531,0.3596,0.3585,0.3615,0.3539,0.354,0.3541,0,0.2916,0.2957,0.3015,0.3098,0.312,0.3163,0.3241,0.33,0.3377,0.3407,0.3443,0.3467,0.3531,0.3511,0.3571,0.355,0.3553,0.3569,0.3569,0.3593,0.3554,0.3565,0.3629,0.3643,0.355,0.355,0.3549,0,0.2877,0.295,0.2994,0.3024,0.3128,0.3161,0.3219,0.3307,0.3359,0.3446,0.3472,0.3532,0.3573,0.3585,0.3623,0.3594,0.3679,0.3633,0.3655,0.3656,0.3647,0.3646,0.3726,0.366,0.366,0.366,0.3659,0,0.2875,0.2909,0.2977,0.3018,0.306,0.3146,0.3215,0.3284,0.3382,0.3454,0.3497,0.3562,0.3594,0.3639,0.3643,0.3691,0.3687,0.3687,0.3679,0.3661,0.366,0.3671,0.3669,0.3661,0.366,0.366,0.366,0,0.2836,0.2897,0.2955,0.3045,0.3056,0.3099,0.3197,0.3256,0.3356,0.3448,0.3475,0.3588,0.3678,0.3698,0.3756,0.3733,0.3713,0.3772,0.3754,0.3746,0.3769,0.3769,0.3628,0.3501,0.3796,0.3797,0.3798,0,0.2823,0.2844,0.2936,0.2969,0.3013,0.3066,0.3111,0.3226,0.3293,0.3474,0.3517,0.364,0.3718,0.3815,0.3857,0.3877,0.3762,0.384,0.3792,0.3804,0.3796,0.3594,0.348,0.3784,0.3785,0.3785,0.3786,0,0.2793,0.2835,0.2896,0.2924,0.2976,0.3005,0.3082,0.3121,0.3283,0.336,0.3498,0.3582,0.3763,0.3829,0.3899,0.3905,0.3744,0.3854,0.3869,0.3817,0.3597,0.3461,0.3725,0.3792,0.3791,0.3791,0.379,0.379,0.2775,0.2782,0.2847,0.2856,0.2903,0.2916,0.2916,0.3018,0.3091,0.3224,0.3406,0.3546,0.3794,0.3923,0.3893,0.3951,0.3797,0.3893,0.3896,0.3691,0.3561,0.3849,0.3908,0.3908,0.3909,0.3909,0.3909,0,0.2705,0.2718,0.275,0.2771,0.2756,0.2804,0.2856,0.2858,0.2895,0.3155,0.3263,0.3592,0.3749,0.3919,0.4118,0.4043,0.3767,0.396,0.37,0.3582,0.3884,0.3885,0.3939,0.3939,0.3939,0.3939,0.3939,0.3939,0.2691,0.2677,0.2656,0.2581,0.2585,0.253,0.2532,0.2584,0.2742,0.2967,0.3203,0.342,0.3882,0.4296,0.4374,0.4242,0.3888,0.3757,0.3633,0.396,0.3953,0.3946,0.3948,0.4015,0.4015,0.3186,0.3182,0.3178]},{"header":{"parameterUnit":"m.s-1","parameterCategory":2,"la1":30.2991,"la2":30.254,"lo1":-89.0895,"lo2":-89.0444,"dy":0.0017,"dx":0.0017,"nx":28,"ny":28,"refTime":"2023-03-16T21:00:00:Z","depth":"0","parameterNumber":3,"parameterNumberName":"V-component_of_CURRENTS"},"data":[0,0,0,0,0,0,0,0,0,0,0,0,0,0,0,0,0,0,0,0,0,0,0,0,0,0,0,0,0,0,0,0,0,0,0,0,0,0,0,0,0,0,0,0,0,0,0,0,0,0,0,0,0,0,0,0,0,0,-0.0312,-0.0312,0,-0.0359,-0.036,-0.0361,-0.0421,-0.0422,-0.0423,-0.0423,-0.0524,-0.0526,-0.0528,0,0,0,0,0,0,0,0,0,0,0,0,0,-0.0269,-0.0269,-0.0311,-0.0312,-0.0312,-0.0359,-0.036,-0.0361,-0.0421,-0.0422,-0.0423,-0.0424,-0.0523,-0.0526,-0.0528,0,0,0,0,0,0,0,0,0,0,0,0,0,-0.0301,-0.027,-0.0311,-0.0346,-0.0349,-0.0359,-0.036,-0.0361,-0.0421,-0.0422,-0.0423,-0.0424,-0.0522,-0.0525,-0.0528,-0.0525,0,0,-0.0538,-0.0539,0,0,0,0,0,0,0,0,-0.03,-0.0303,-0.034,-0.0343,-0.0347,-0.0383,-0.0382,-0.0418,-0.0421,-0.0397,-0.0423,-0.0425,-0.0479,-0.0486,-0.0495,-0.053,-0.0534,-0.0538,-0.054,-0.0541,-0.0542,0,0,0,0,0,0,0,-0.0297,-0.0302,-0.0333,-0.0341,-0.0345,-0.0357,-0.0364,-0.0389,-0.0434,-0.0399,-0.0403,-0.0403,-0.0482,-0.0492,-0.0498,-0.0536,-0.0538,-0.054,-0.0542,-0.0543,-0.0587,-0.0586,0,0,0,0,0,0,-0.0285,-0.0299,-0.0332,-0.0334,-0.0322,-0.0357,-0.0364,-0.0373,-0.0433,-0.0442,-0.0402,-0.0406,-0.0487,-0.0495,-0.0502,-0.0511,-0.0541,-0.0544,-0.0545,-0.0588,-0.0587,-0.0586,0,0,0,0,0,0,-0.0284,-0.0288,-0.033,-0.0315,-0.0321,-0.0357,-0.0366,-0.0373,-0.0382,-0.0435,-0.0446,-0.0404,-0.0488,-0.0498,-0.0522,-0.0515,-0.0545,-0.0548,-0.0588,-0.0587,-0.0586,-0.0523,0,0,0,0,0,0,-0.0283,-0.0287,-0.0282,-0.0315,-0.0322,-0.0327,-0.0365,-0.0373,-0.038,-0.0385,-0.0439,-0.045,-0.0489,-0.0517,-0.0525,-0.052,-0.055,-0.0589,-0.0588,-0.0587,-0.0526,-0.052,-0.0515,0,0,0,0,0,-0.0281,-0.0268,-0.0282,-0.0285,-0.0316,-0.0326,-0.033,-0.0361,-0.0379,-0.0375,-0.0415,-0.0448,-0.0515,-0.0519,-0.0528,-0.0524,-0.059,-0.0588,-0.0587,-0.0528,-0.0521,-0.0515,0,0,0,0,0,0,-0.0249,-0.0273,-0.0289,-0.0286,-0.03,-0.0335,-0.0328,-0.0351,-0.0378,-0.0385,-0.0439,-0.0452,-0.0474,-0.0501,-0.0504,-0.0532,-0.0558,-0.0558,-0.051,-0.0504,-0.0498,-0.0462,-0.0553,0,0,0,0,0,-0.0237,-0.0232,-0.0262,-0.0256,-0.026,-0.0292,-0.0297,-0.032,-0.0349,-0.0362,-0.0399,-0.0438,-0.0473,-0.049,-0.0523,-0.0532,-0.0554,-0.0536,-0.053,-0.0525,-0.0502,-0.0535,-0.053,-0.0581,-0.0581,-0.0581,0,0,-0.0224,-0.0233,-0.0232,-0.0247,-0.0261,-0.0258,-0.0299,-0.0302,-0.0302,-0.0368,-0.0376,-0.0421,-0.0472,-0.0491,-0.0502,-0.0513,-0.0522,-0.0523,-0.0519,-0.0498,-0.0533,-0.0528,-0.0523,-0.058,-0.0581,-0.0581,0,0,-0.0183,-0.0201,-0.0182,-0.0191,-0.0203,-0.0223,-0.022,-0.025,-0.0267,-0.0281,-0.0333,-0.0364,-0.0412,-0.0445,-0.047,-0.0448,-0.0494,-0.0466,-0.0408,-0.044,-0.0436,-0.0433,-0.0453,-0.0452,-0.046,-0.046,-0.046,0,-0.0166,-0.0147,-0.0176,-0.016,-0.0155,-0.0203,-0.0181,-0.0204,-0.0239,-0.0242,-0.0274,-0.0339,-0.0387,-0.0408,-0.0406,-0.0435,-0.0458,-0.0431,-0.0432,-0.043,-0.0427,-0.0449,-0.0448,-0.0457,-0.0457,-0.0458,-0.0458,0,-0.0112,-0.01,-0.0086,-0.0083,-0.0084,-0.0072,-0.0106,-0.0112,-0.014,-0.0165,-0.019,-0.0257,-0.0291,-0.032,-0.0359,-0.0365,-0.0389,-0.0425,-0.0447,-0.0418,-0.0443,-0.0444,-0.0452,-0.0454,-0.0455,-0.0455,0,0,-0.0065,-0.0051,-0.0045,-0.0028,-0.0041,-0.0035,-0.0031,-0.0034,-0.0022,-0.0076,-0.0062,-0.0138,-0.0174,-0.0203,-0.0263,-0.0293,-0.0308,-0.0344,-0.0347,-0.0358,-0.0371,-0.0399,-0.0403,-0.0351,-0.0351,-0.0351,-0.0394,0,-0.0011,0.0045,0.0032,0.0078,0.0104,0.0066,0.0078,0.0063,0.0042,0.0039,-0.0035,-0.0056,-0.0132,-0.015,-0.0192,-0.0277,-0.0306,-0.0291,-0.04,-0.0402,-0.0428,-0.0404,-0.0415,-0.0456,-0.0395,-0.0396,-0.0396,0,0.005,0.0084,0.0143,0.0169,0.0176,0.0192,0.0214,0.021,0.0185,0.0173,0.0139,0.0074,0.0023,-0.0051,-0.0167,-0.0156,-0.0246,-0.0318,-0.0323,-0.0366,-0.0432,-0.0476,-0.046,-0.0685,-0.0397,-0.0397,-0.0397,0,0.0113,0.0159,0.0215,0.0222,0.024,0.0262,0.0267,0.026,0.0282,0.0258,0.0275,0.0189,0.016,0.0034,-0.0121,-0.0144,-0.0248,-0.0305,-0.0412,-0.0415,-0.0451,-0.0458,-0.0658,-0.0377,-0.0377,-0.0377,-0.0377,0,0.0177,0.0222,0.0253,0.0278,0.0353,0.0331,0.0393,0.0388,0.0403,0.0456,0.0346,0.0374,0.0179,0.0086,-0.0071,-0.0232,-0.0213,-0.0384,-0.0424,-0.043,-0.0434,-0.0653,-0.0797,-0.0379,-0.0378,-0.0378,-0.0378,0,0.0239,0.0252,0.0315,0.0356,0.0381,0.0429,0.0486,0.0539,0.0526,0.0596,0.0595,0.0522,0.0401,0.0195,0.0003,-0.0152,-0.0469,-0.0384,-0.037,-0.0408,-0.0724,-0.0862,-0.1101,-0.1263,-0.0504,-0.0505,-0.0506,0,0.0276,0.0319,0.0383,0.044,0.0467,0.0537,0.0603,0.0613,0.0683,0.0702,0.076,0.0654,0.0617,0.031,0.001,-0.0268,-0.0505,-0.0464,-0.0515,-0.073,-0.0915,-0.1019,-0.1146,-0.054,-0.0541,-0.0541,-0.0542,0,0.035,0.0367,0.042,0.055,0.0633,0.0717,0.081,0.0884,0.091,0.0957,0.1012,0.0972,0.0679,0.0396,-0.0001,-0.0212,-0.0671,-0.0489,-0.0723,-0.0961,-0.1076,-0.1254,-0.052,-0.0549,-0.0548,-0.0548,-0.0548,-0.0547,0.0397,0.0467,0.0546,0.0674,0.0772,0.0894,0.0969,0.107,0.117,0.1245,0.1212,0.1187,0.0755,0.0209,-0.0118,-0.0719,-0.0749,-0.0894,-0.1041,-0.1121,-0.1296,-0.0567,-0.0641,-0.0641,-0.0641,-0.0641,-0.0641,0,0.047,0.0556,0.0678,0.0811,0.0934,0.0962,0.1111,0.1181,0.1302,0.1388,0.1408,0.1188,0.0647,0.0087,-0.0702,-0.1158,-0.1374,-0.143,-0.1594,-0.1699,-0.1048,-0.1067,-0.1223,-0.1223,-0.1223,-0.1222,-0.1222,-0.1222,0.0502,0.0637,0.0717,0.0928,0.1025,0.1162,0.1239,0.1332,0.1412,0.1474,0.1465,0.1414,0.0981,-0.0394,-0.145,-0.1717,-0.21,-0.2159,-0.238,-0.1937,-0.1898,-0.1861,-0.1912,-0.2243,-0.2244,-0.2977,-0.2985,-0.299]}],[{"header":{"parameterUnit":"m.s-1","parameterCategory":2,"la1":30.2991,"la2":30.254,"lo1":-89.0895,"lo2":-89.0444,"dy":0.0017,"dx":0.0017,"nx":28,"ny":28,"refTime":"2023-03-16T21:00:00:Z","depth":"2","parameterNumber":2,"parameterNumberName":"U-component_of_CURRENTS"},"data":[0,0,0,0,0,0,0,0,0,0,0,0,0,0,0,0,0,0,0,0,0,0,0,0,0,0,0,0,0,0,0,0,0,0,0,0,0,0,0,0,0,0,0,0,0,0,0,0,0,0,0,0,0,0,0,0,0,0,0.2962,0.2963,0,0.3002,0.3002,0.3003,0.3067,0.3069,0.307,0.3071,0.3123,0.3124,0.3124,0,0,0,0,0,0,0,0,0,0,0,0,0,0.288,0.2881,0.2962,0.2963,0.2963,0.3001,0.3002,0.3003,0.3067,0.3069,0.307,0.3071,0.3123,0.3124,0.3124,0,0,0,0,0,0,0,0,0,0,0,0,0,0.2917,0.2882,0.2962,0.3,0.3004,0.3001,0.3002,0.3003,0.3067,0.3069,0.307,0.3072,0.3123,0.3124,0.3124,0.3092,0,0,0.3126,0.3126,0,0,0,0,0,0,0,0,0.2915,0.292,0.2994,0.2997,0.3001,0.3031,0.2992,0.3033,0.3067,0.3043,0.3071,0.3073,0.3092,0.3095,0.3099,0.3094,0.3096,0.3126,0.3126,0.3126,0.3126,0,0,0,0,0,0,0,0.2912,0.2919,0.2978,0.2994,0.2999,0.2993,0.3001,0.3,0.3058,0.3045,0.305,0.3053,0.3095,0.3098,0.3101,0.3097,0.3126,0.3126,0.3126,0.3126,0.3183,0.3184,0,0,0,0,0,0,0.2909,0.2916,0.2977,0.2979,0.2961,0.2993,0.3002,0.302,0.3058,0.3065,0.3052,0.3056,0.3097,0.31,0.3103,0.3164,0.3126,0.3127,0.3127,0.3182,0.3184,0.3185,0,0,0,0,0,0,0.2907,0.2914,0.2975,0.2947,0.2955,0.2993,0.3013,0.302,0.3035,0.3063,0.3071,0.3061,0.3098,0.3102,0.314,0.3163,0.3127,0.3127,0.3181,0.3182,0.3184,0.3223,0,0,0,0,0,0,0.2905,0.2914,0.2919,0.2948,0.2956,0.3005,0.3011,0.3019,0.3033,0.304,0.3072,0.3078,0.31,0.314,0.3141,0.3163,0.3127,0.3179,0.3181,0.3184,0.322,0.3226,0.3231,0,0,0,0,0,0.2902,0.2917,0.292,0.2927,0.2966,0.3006,0.3011,0.3042,0.3032,0.3057,0.3081,0.3078,0.3155,0.3141,0.3142,0.3165,0.3178,0.3181,0.3183,0.3218,0.3225,0.3231,0,0,0,0,0,0,0.2891,0.2925,0.293,0.2956,0.2987,0.3018,0.3035,0.3036,0.3069,0.3074,0.3088,0.3098,0.3144,0.3142,0.3126,0.3189,0.3167,0.317,0.3193,0.3199,0.3204,0.3217,0.3128,0,0,0,0,0,0.2885,0.2905,0.2939,0.296,0.2976,0.2995,0.3008,0.3031,0.306,0.3076,0.3094,0.3118,0.315,0.3166,0.3195,0.3214,0.3213,0.3231,0.3237,0.3241,0.3253,0.3268,0.3276,0.3194,0.3194,0.3194,0,0,0.2883,0.2904,0.2915,0.2957,0.2979,0.3013,0.301,0.3044,0.3073,0.3073,0.3116,0.3136,0.3161,0.3209,0.3227,0.3212,0.3264,0.3245,0.3248,0.3258,0.3272,0.328,0.3287,0.3196,0.3196,0.3195,0,0,0.2892,0.2914,0.2933,0.2964,0.3002,0.3024,0.3032,0.3067,0.3093,0.3125,0.3145,0.3183,0.3207,0.3252,0.3269,0.3312,0.3295,0.3312,0.3345,0.3359,0.3366,0.3372,0.338,0.3386,0.331,0.3311,0.3311,0,0.2885,0.2918,0.2945,0.2977,0.3002,0.3029,0.306,0.3091,0.3133,0.3148,0.3151,0.3209,0.3235,0.3296,0.333,0.3326,0.3323,0.3317,0.3366,0.3372,0.3377,0.3384,0.339,0.3313,0.3313,0.3312,0.3312,0,0.2908,0.294,0.296,0.3008,0.3041,0.3078,0.3124,0.3154,0.3166,0.3188,0.3243,0.3283,0.3316,0.3334,0.335,0.3406,0.3389,0.3372,0.3347,0.3388,0.3392,0.3398,0.3316,0.3315,0.3315,0.3314,0,0,0.2872,0.2958,0.2962,0.2992,0.3061,0.309,0.3144,0.3196,0.3229,0.3262,0.3299,0.3368,0.3374,0.3397,0.3419,0.3446,0.3491,0.343,0.343,0.3434,0.3517,0.3546,0.3554,0.3475,0.3477,0.3478,0.3503,0,0.2879,0.2936,0.2982,0.3041,0.3074,0.3127,0.3182,0.3231,0.327,0.3317,0.3352,0.3405,0.3402,0.3431,0.3454,0.3494,0.3509,0.3486,0.3481,0.3481,0.3499,0.3564,0.3232,0.3231,0.3509,0.351,0.3511,0,0.2877,0.2916,0.2974,0.3061,0.3082,0.3129,0.3206,0.3266,0.3341,0.337,0.3409,0.3434,0.3501,0.3483,0.3542,0.3524,0.3525,0.354,0.354,0.3561,0.3522,0.3236,0.3231,0.352,0.3519,0.3519,0.3518,0,0.2836,0.2909,0.2954,0.2984,0.3088,0.3125,0.3187,0.3271,0.3324,0.3411,0.3437,0.3498,0.3542,0.3553,0.3591,0.3564,0.3646,0.36,0.3619,0.362,0.3337,0.3312,0.3624,0.3624,0.3624,0.3624,0.3624,0,0.2835,0.2868,0.2936,0.2979,0.302,0.3108,0.318,0.3251,0.3348,0.342,0.3464,0.3528,0.3563,0.3606,0.361,0.3656,0.3652,0.365,0.3642,0.3344,0.3321,0.3567,0.356,0.3625,0.3625,0.3625,0.3625,0,0.2796,0.2856,0.2915,0.3007,0.3017,0.3062,0.3167,0.3227,0.3326,0.3418,0.3447,0.3556,0.3644,0.3665,0.372,0.3696,0.3727,0.3731,0.3393,0.3348,0.3676,0.367,0.3746,0.3748,0.3749,0.375,0.3751,0,0.2786,0.2804,0.29,0.2932,0.2979,0.3034,0.3079,0.3197,0.3266,0.3444,0.3487,0.3608,0.3673,0.3765,0.3735,0.3732,0.3793,0.3459,0.3368,0.3711,0.3694,0.3687,0.368,0.2981,0.2976,0.2972,0.2968,0,0.2757,0.2801,0.2865,0.2891,0.2945,0.2975,0.3055,0.3094,0.3258,0.3322,0.3457,0.3529,0.3641,0.3516,0.3552,0.3513,0.3438,0.3377,0.3789,0.3048,0.3005,0.2985,0.2999,0.2928,0.2932,0.2935,0.2937,0.2939,0.2745,0.2753,0.2823,0.2829,0.2876,0.2889,0.2892,0.2955,0.3012,0.3057,0.3283,0.3257,0.3316,0.3203,0.3135,0.3077,0.3314,0.3141,0.3146,0.3158,0.3112,0.3079,0.3005,0.3009,0.3012,0.3016,0.3018,0,0.2661,0.2693,0.2728,0.275,0.2716,0.2782,0.2834,0.2767,0.2738,0.2837,0.2869,0.2662,0.2612,0.2682,0.2522,0.2577,0.2461,0.2494,0.2275,0.2319,0.2357,0.2261,0.1931,0.1928,0.1925,0.1922,0,0,0.2643,0.2623,0.26,0.252,0.2542,0.2441,0.244,0.2364,0.2366,0.2268,0.2231,0.2399,0.2575,0.2176,0.2168,0.2018,0.214,0.1947,0.2819,0.2601,0.2635,0.2741,0.2648,0,0,0,0,0]},{"header":{"parameterUnit":"m.s-1","parameterCategory":2,"la1":30.2991,"la2":30.254,"lo1":-89.0895,"lo2":-89.0444,"dy":0.0017,"dx":0.0017,"nx":28,"ny":28,"refTime":"2023-03-16T21:00:00:Z","depth":"2","parameterNumber":3,"parameterNumberName":"V-component_of_CURRENTS"},"data":[0,0,0,0,0,0,0,0,0,0,0,0,0,0,0,0,0,0,0,0,0,0,0,0,0,0,0,0,0,0,0,0,0,0,0,0,0,0,0,0,0,0,0,0,0,0,0,0,0,0,0,0,0,0,0,0,0,0,-0.022,-0.022,0,-0.0253,-0.0253,-0.0254,-0.0329,-0.033,-0.0331,-0.0332,-0.0436,-0.0438,-0.0439,0,0,0,0,0,0,0,0,0,0,0,0,0,-0.0191,-0.0191,-0.022,-0.022,-0.022,-0.0252,-0.0253,-0.0254,-0.0329,-0.033,-0.0331,-0.0333,-0.0435,-0.0438,-0.044,0,0,0,0,0,0,0,0,0,0,0,0,0,-0.0216,-0.0192,-0.022,-0.0258,-0.0261,-0.0252,-0.0253,-0.0255,-0.0328,-0.033,-0.0332,-0.0333,-0.0435,-0.0437,-0.044,-0.0423,0,0,-0.0448,-0.0449,0,0,0,0,0,0,0,0,-0.0214,-0.0217,-0.0252,-0.0255,-0.0259,-0.0284,-0.0281,-0.0313,-0.0328,-0.0308,-0.0332,-0.0334,-0.0388,-0.0394,-0.0402,-0.0427,-0.0432,-0.0448,-0.045,-0.0451,-0.0451,0,0,0,0,0,0,0,-0.0213,-0.0216,-0.0238,-0.0252,-0.0256,-0.0261,-0.0268,-0.0287,-0.0343,-0.031,-0.0314,-0.0309,-0.0391,-0.04,-0.0405,-0.0433,-0.0448,-0.045,-0.0452,-0.0453,-0.0495,-0.0495,0,0,0,0,0,0,-0.0199,-0.0215,-0.0237,-0.0238,-0.0235,-0.026,-0.0268,-0.0278,-0.0341,-0.0351,-0.0308,-0.0313,-0.0394,-0.0402,-0.0409,-0.0424,-0.0451,-0.0453,-0.0455,-0.0496,-0.0495,-0.0495,0,0,0,0,0,0,-0.0198,-0.0201,-0.0235,-0.0222,-0.0227,-0.0259,-0.027,-0.0278,-0.0291,-0.0338,-0.0351,-0.0314,-0.0396,-0.0406,-0.0435,-0.0427,-0.0454,-0.0457,-0.0496,-0.0496,-0.0495,-0.0433,0,0,0,0,0,0,-0.0198,-0.0201,-0.0197,-0.0222,-0.0227,-0.0232,-0.0268,-0.0277,-0.0283,-0.029,-0.0347,-0.0358,-0.0398,-0.0431,-0.0438,-0.0432,-0.0459,-0.0497,-0.0496,-0.0495,-0.0435,-0.043,-0.0426,0,0,0,0,0,-0.0197,-0.0184,-0.0197,-0.0198,-0.0223,-0.0231,-0.0234,-0.0265,-0.0282,-0.0284,-0.0326,-0.0356,-0.0431,-0.0432,-0.0441,-0.0435,-0.0497,-0.0496,-0.0495,-0.0438,-0.0431,-0.0426,0,0,0,0,0,0,-0.0171,-0.019,-0.0205,-0.02,-0.0214,-0.0242,-0.0235,-0.0256,-0.0288,-0.0296,-0.0349,-0.0363,-0.0388,-0.0415,-0.0415,-0.0445,-0.0469,-0.047,-0.0422,-0.0417,-0.0412,-0.0377,-0.0461,0,0,0,0,0,-0.016,-0.0155,-0.0179,-0.0173,-0.0176,-0.0203,-0.0206,-0.023,-0.0259,-0.0275,-0.0313,-0.0353,-0.0386,-0.0405,-0.0438,-0.0447,-0.0468,-0.0449,-0.0444,-0.044,-0.0417,-0.0449,-0.0445,-0.0492,-0.0492,-0.0492,0,0,-0.0147,-0.0153,-0.0152,-0.0165,-0.0177,-0.0172,-0.0211,-0.0213,-0.0213,-0.0279,-0.029,-0.0336,-0.0386,-0.0406,-0.0419,-0.043,-0.0438,-0.0439,-0.0434,-0.0413,-0.0448,-0.0443,-0.0439,-0.0491,-0.0491,-0.0491,0,0,-0.0107,-0.0125,-0.0105,-0.0114,-0.0123,-0.0141,-0.0139,-0.0166,-0.0185,-0.0199,-0.0251,-0.0285,-0.0331,-0.0366,-0.0389,-0.037,-0.0413,-0.0388,-0.0333,-0.0365,-0.0361,-0.0358,-0.038,-0.0379,-0.0384,-0.0384,-0.0383,0,-0.009,-0.0072,-0.0099,-0.0084,-0.0077,-0.0123,-0.0101,-0.0123,-0.0158,-0.0161,-0.0197,-0.026,-0.0308,-0.0327,-0.033,-0.0357,-0.0382,-0.0353,-0.0358,-0.0355,-0.0353,-0.0376,-0.0376,-0.038,-0.0381,-0.0381,-0.0381,0,-0.0036,-0.0024,-0.0011,-0.0008,-0.0009,0.0003,-0.0028,-0.0037,-0.0064,-0.0087,-0.0114,-0.0183,-0.0217,-0.0246,-0.0284,-0.0291,-0.0315,-0.035,-0.037,-0.0344,-0.0371,-0.0372,-0.0376,-0.0377,-0.0378,-0.0379,0,0,0.001,0.0024,0.003,0.0046,0.0034,0.0039,0.0044,0.0041,0.0054,-0.0003,0.001,-0.0065,-0.0103,-0.0131,-0.019,-0.0222,-0.0238,-0.0272,-0.0276,-0.0287,-0.0303,-0.0334,-0.0339,-0.0281,-0.028,-0.028,-0.0328,0,0.0064,0.0119,0.0106,0.015,0.0177,0.0139,0.0151,0.0137,0.0115,0.0111,0.0037,0.0015,-0.0061,-0.008,-0.0122,-0.0207,-0.0237,-0.0221,-0.0331,-0.0333,-0.0359,-0.034,-0.0307,-0.0348,-0.0329,-0.033,-0.033,0,0.0125,0.0161,0.0218,0.0242,0.0249,0.0262,0.0283,0.0279,0.0255,0.0242,0.0206,0.0141,0.0088,0.0016,-0.0102,-0.009,-0.018,-0.0252,-0.0257,-0.0302,-0.0366,-0.0371,-0.0351,-0.0332,-0.0332,-0.0332,-0.0332,0,0.0189,0.0234,0.0288,0.0295,0.0313,0.0332,0.0334,0.0328,0.0349,0.0324,0.0339,0.0253,0.0221,0.0096,-0.006,-0.0081,-0.0189,-0.0242,-0.0351,-0.0355,-0.0353,-0.0356,-0.0315,-0.0315,-0.0315,-0.0314,-0.0314,0,0.025,0.0295,0.0325,0.0349,0.0423,0.04,0.0458,0.0452,0.0465,0.0515,0.0407,0.0431,0.0238,0.0144,-0.0011,-0.0175,-0.0155,-0.0325,-0.0365,-0.0332,-0.0333,-0.0341,-0.0344,-0.0316,-0.0316,-0.0316,-0.0315,0,0.0311,0.0324,0.0386,0.0426,0.045,0.0495,0.0546,0.0597,0.0583,0.0649,0.0646,0.0572,0.0449,0.0246,0.0054,-0.01,-0.0265,-0.0331,-0.0274,-0.0307,-0.0421,-0.042,-0.0452,-0.0453,-0.0454,-0.0455,-0.0456,0,0.0343,0.0389,0.0449,0.0505,0.0529,0.0595,0.0661,0.0667,0.0735,0.0749,0.0804,0.0696,0.0653,0.0346,0.0058,-0.0216,-0.0261,-0.0372,-0.0413,-0.0397,-0.0433,-0.043,-0.0427,-0.0387,-0.0387,-0.0387,-0.0387,0,0.0415,0.0429,0.048,0.0609,0.0688,0.0769,0.0857,0.093,0.0953,0.0994,0.1042,0.0997,0.0712,0.0438,0.0046,-0.0138,-0.0331,-0.0386,-0.0375,-0.0361,-0.0341,-0.0375,-0.0373,-0.0389,-0.0389,-0.0389,-0.0389,-0.0388,0.0455,0.0523,0.0598,0.0724,0.0819,0.0938,0.101,0.1102,0.1194,0.1249,0.1212,0.1138,0.0833,0.0329,0.0008,-0.0337,-0.0334,-0.046,-0.0457,-0.0454,-0.0442,-0.0426,-0.0486,-0.0486,-0.0487,-0.0487,-0.0487,0,0.0531,0.0606,0.0723,0.0853,0.0974,0.1001,0.1148,0.1219,0.1325,0.1358,0.1353,0.1084,0.0746,0.0396,-0.0111,-0.0419,-0.0434,-0.0513,-0.0463,-0.046,-0.0457,-0.0444,-0.0489,-0.049,-0.0491,-0.0492,0,0,0.0562,0.0695,0.0774,0.0973,0.1062,0.1213,0.1289,0.1387,0.1436,0.1465,0.1406,0.1259,0.0852,0.0483,0.0072,-0.0208,-0.0265,-0.0263,-0.023,-0.012,-0.0113,-0.0396,-0.0368,0,0,0,0,0]}],[{"header":{"parameterUnit":"m.s-1","parameterCategory":2,"la1":30.2991,"la2":30.254,"lo1":-89.0895,"lo2":-89.0444,"dy":0.0017,"dx":0.0017,"nx":28,"ny":28,"refTime":"2023-03-16T21:00:00:Z","depth":"4","parameterNumber":2,"parameterNumberName":"U-component_of_CURRENTS"},"data":[0,0,0,0,0,0,0,0,0,0,0,0,0,0,0,0,0,0,0,0,0,0,0,0,0,0,0,0,0,0,0,0,0,0,0,0,0,0,0,0,0,0,0,0,0,0,0,0,0,0,0,0,0,0,0,0,0,0,0.1564,0.1565,0,0.1672,0.1673,0.1674,0.1743,0.1744,0.1745,0.1745,0.1827,0.1829,0.183,0,0,0,0,0,0,0,0,0,0,0,0,0,0.1461,0.1462,0.1563,0.1565,0.1567,0.1672,0.1673,0.1674,0.1743,0.1744,0.1745,0.1746,0.1827,0.1829,0.183,0,0,0,0,0,0,0,0,0,0,0,0,0,0.1528,0.1462,0.1563,0.1616,0.1622,0.1671,0.1673,0.1674,0.1743,0.1744,0.1745,0.1746,0.1826,0.1828,0.1831,0.1824,0,0,0.1838,0.1839,0,0,0,0,0,0,0,0,0.1524,0.1531,0.1607,0.1612,0.1619,0.1698,0.1667,0.1724,0.1743,0.1694,0.1745,0.1746,0.1783,0.1789,0.1803,0.1828,0.1832,0.1838,0.1839,0.184,0.1841,0,0,0,0,0,0,0,0.1519,0.1527,0.1603,0.1608,0.1616,0.165,0.166,0.1678,0.1728,0.1698,0.1704,0.1721,0.1786,0.18,0.1805,0.1833,0.1838,0.184,0.1841,0.1842,0.2009,0.2012,0,0,0,0,0,0,0.1508,0.1523,0.16,0.1607,0.1577,0.1651,0.1662,0.1669,0.1729,0.174,0.172,0.1724,0.1796,0.1802,0.1808,0.1898,0.184,0.1842,0.1844,0.2006,0.201,0.2013,0,0,0,0,0,0,0.1506,0.1514,0.1596,0.157,0.1583,0.1651,0.1659,0.1671,0.1742,0.1746,0.1756,0.1786,0.1797,0.1805,0.1864,0.1898,0.1844,0.1846,0.2003,0.2007,0.2012,0.2017,0,0,0,0,0,0,0.1502,0.1512,0.1534,0.1569,0.1585,0.1651,0.1659,0.1672,0.1748,0.1756,0.1805,0.181,0.1798,0.1861,0.1867,0.19,0.1847,0.1999,0.2005,0.201,0.2013,0.2021,0.2028,0,0,0,0,0,0.1498,0.1515,0.1534,0.1545,0.1606,0.1653,0.1664,0.1714,0.1751,0.1783,0.182,0.1812,0.1902,0.1865,0.1871,0.1906,0.1996,0.2003,0.201,0.201,0.202,0.2028,0,0,0,0,0,0,0.1481,0.1526,0.1547,0.1578,0.1626,0.1666,0.1707,0.1749,0.1806,0.1828,0.1836,0.1844,0.1908,0.1922,0.188,0.1979,0.1954,0.1963,0.1953,0.1962,0.197,0.2007,0.1849,0,0,0,0,0,0.1486,0.1521,0.1561,0.1596,0.162,0.1678,0.1715,0.1753,0.1799,0.183,0.1858,0.1902,0.1933,0.1961,0.1985,0.2035,0.2055,0.2072,0.208,0.2086,0.2127,0.2155,0.2167,0.2036,0.2036,0.2036,0,0,0.1493,0.1524,0.1546,0.1598,0.164,0.168,0.1704,0.1774,0.1821,0.1826,0.1904,0.1927,0.1955,0.2002,0.2035,0.2022,0.2137,0.2095,0.2098,0.2137,0.2163,0.2176,0.2187,0.204,0.204,0.2039,0,0,0.1515,0.1549,0.1584,0.1624,0.1697,0.1723,0.1757,0.1822,0.1866,0.1939,0.1951,0.2013,0.2063,0.2085,0.2103,0.2183,0.2172,0.2192,0.2259,0.2284,0.2294,0.2303,0.234,0.2352,0.2198,0.2198,0.2198,0,0.153,0.1565,0.1605,0.1647,0.1687,0.1748,0.1794,0.184,0.1921,0.1964,0.1975,0.2082,0.2109,0.2165,0.2201,0.2199,0.2211,0.2204,0.2289,0.2299,0.2308,0.2344,0.2357,0.2199,0.2199,0.2199,0.2199,0,0.1566,0.1608,0.1635,0.17,0.1747,0.18,0.1858,0.1917,0.1983,0.2035,0.2129,0.216,0.2232,0.2244,0.2254,0.2334,0.232,0.2282,0.2251,0.2321,0.2355,0.2369,0.22,0.22,0.22,0.2199,0,0,0.1562,0.1643,0.1659,0.1693,0.1782,0.182,0.1897,0.1978,0.205,0.2125,0.2216,0.2288,0.2329,0.2359,0.2364,0.2405,0.2483,0.2387,0.2388,0.24,0.2548,0.2374,0.2373,0.2437,0.244,0.2442,0.2542,0,0.1584,0.1655,0.1696,0.1771,0.1807,0.1877,0.1942,0.2033,0.2113,0.2209,0.2276,0.2369,0.236,0.2411,0.2445,0.2478,0.2523,0.2462,0.2503,0.2506,0.2321,0.2384,0.2451,0.2552,0.2555,0.2557,0.2559,0,0.1597,0.1646,0.1722,0.1804,0.183,0.1891,0.2009,0.2075,0.221,0.2283,0.2378,0.2442,0.2545,0.252,0.2608,0.2562,0.2585,0.2597,0.2599,0.2453,0.2358,0.2475,0.2584,0.2582,0.258,0.2579,0.2577,0,0.1553,0.1654,0.1715,0.1749,0.1858,0.1919,0.1983,0.2115,0.219,0.2349,0.2434,0.2533,0.2611,0.2646,0.2697,0.2665,0.2774,0.2717,0.2582,0.2571,0.2691,0.268,0.2793,0.2793,0.2793,0.2792,0.2792,0,0.1529,0.1582,0.1713,0.1738,0.1837,0.1919,0.2034,0.2114,0.2253,0.2356,0.2475,0.2556,0.265,0.2718,0.2735,0.2698,0.28,0.2625,0.2588,0.2693,0.2681,0.27,0.2688,0.2796,0.2795,0.2794,0.2794,0,0.1472,0.1549,0.1619,0.1752,0.1815,0.1885,0.2049,0.2124,0.2263,0.2396,0.2463,0.261,0.2689,0.2749,0.2826,0.2732,0.2731,0.2695,0.2839,0.2803,0.2508,0.2496,0.2557,0.2552,0.2547,0.2544,0.254,0,0.1441,0.1481,0.1629,0.1683,0.1754,0.1884,0.1975,0.2123,0.2202,0.2407,0.2457,0.2605,0.2686,0.2631,0.2709,0.271,0.2673,0.2654,0.2564,0.2529,0.2487,0.2482,0.2476,0.2533,0.2532,0.2531,0.253,0,0.1375,0.1447,0.1501,0.1635,0.1736,0.1842,0.1975,0.2018,0.2191,0.2342,0.2396,0.2437,0.2511,0.2534,0.2548,0.2546,0.265,0.2607,0.2616,0.253,0.2501,0.2462,0.2462,0.2515,0.2517,0.2518,0.2519,0,0.1321,0.1358,0.1448,0.1564,0.1681,0.1756,0.1836,0.1925,0.2013,0.222,0.2241,0.237,0.2498,0.2453,0.2475,0.2446,0.2404,0.2307,0.233,0.2348,0.2229,0.2158,0.2056,0,0,0,0,0,0.1257,0.1293,0.1378,0.1469,0.1583,0.1662,0.1823,0.1903,0.2078,0.2058,0.2134,0.2195,0.2213,0.2277,0.2203,0.2396,0.2423,0.2302,0.2326,0.2429,0.2447,0.2322,0,0,0,0,0,0,0.1196,0.1261,0.1331,0.1381,0.1432,0.1547,0.1636,0.1754,0.1744,0.1916,0.1929,0.2056,0.21,0.222,0.2156,0.2177,0.2145,0.2385,0.2379,0.2419,0.2435,0.245,0.2328,0,0,0,0,0]},{"header":{"parameterUnit":"m.s-1","parameterCategory":2,"la1":30.2991,"la2":30.254,"lo1":-89.0895,"lo2":-89.0444,"dy":0.0017,"dx":0.0017,"nx":28,"ny":28,"refTime":"2023-03-16T21:00:00:Z","depth":"4","parameterNumber":3,"parameterNumberName":"V-component_of_CURRENTS"},"data":[0,0,0,0,0,0,0,0,0,0,0,0,0,0,0,0,0,0,0,0,0,0,0,0,0,0,0,0,0,0,0,0,0,0,0,0,0,0,0,0,0,0,0,0,0,0,0,0,0,0,0,0,0,0,0,0,0,0,0.0269,0.0269,0,0.0216,0.0216,0.0215,0.0194,0.0195,0.0195,0.0195,0.0179,0.0178,0.0178,0,0,0,0,0,0,0,0,0,0,0,0,0,0.0282,0.0282,0.0269,0.0269,0.0268,0.0217,0.0216,0.0215,0.0194,0.0195,0.0195,0.0195,0.0179,0.0178,0.0178,0,0,0,0,0,0,0,0,0,0,0,0,0,0.0257,0.0282,0.0269,0.0252,0.025,0.0217,0.0216,0.0215,0.0194,0.0195,0.0195,0.0195,0.0179,0.0178,0.0178,0.0164,0,0,0.0175,0.0174,0,0,0,0,0,0,0,0,0.0258,0.0256,0.0255,0.0253,0.0251,0.0213,0.0214,0.02,0.0194,0.0214,0.0195,0.0195,0.0194,0.0192,0.0179,0.0164,0.0163,0.0174,0.0174,0.0173,0.0173,0,0,0,0,0,0,0,0.026,0.0258,0.0247,0.0255,0.0252,0.0223,0.0221,0.0211,0.0203,0.0213,0.0211,0.0207,0.0193,0.018,0.0179,0.0163,0.0174,0.0174,0.0173,0.0173,0.0147,0.0147,0,0,0,0,0,0,0.0272,0.026,0.0249,0.0246,0.0257,0.0223,0.022,0.0224,0.0202,0.0199,0.0207,0.0206,0.0182,0.018,0.0178,0.0194,0.0173,0.0173,0.0172,0.0147,0.0147,0.0147,0,0,0,0,0,0,0.0273,0.0272,0.0251,0.0252,0.0247,0.0223,0.0227,0.0223,0.0214,0.0197,0.0195,0.0203,0.0182,0.018,0.0182,0.0192,0.0172,0.0171,0.0147,0.0147,0.0147,0.0205,0,0,0,0,0,0,0.0273,0.0273,0.0278,0.0253,0.0248,0.0246,0.0227,0.0222,0.0211,0.021,0.0194,0.0192,0.0182,0.0184,0.0181,0.019,0.017,0.0147,0.0147,0.0147,0.0203,0.0207,0.021,0,0,0,0,0,0.0274,0.0288,0.0279,0.0277,0.0257,0.0247,0.0242,0.0224,0.0211,0.0215,0.0203,0.0193,0.018,0.0183,0.018,0.0189,0.0147,0.0147,0.0147,0.0201,0.0206,0.021,0,0,0,0,0,0,0.0298,0.0286,0.0276,0.0285,0.0272,0.0244,0.0245,0.0226,0.0216,0.0216,0.0197,0.0195,0.0199,0.0182,0.0186,0.0178,0.0159,0.0158,0.0202,0.0206,0.0209,0.0216,0.017,0,0,0,0,0,0.0304,0.0312,0.0293,0.03,0.0296,0.0268,0.0259,0.0246,0.0233,0.0228,0.0217,0.0201,0.0192,0.0192,0.018,0.0181,0.0143,0.018,0.0184,0.0187,0.0188,0.0137,0.0136,0.0146,0.0146,0.0146,0,0,0.0314,0.0309,0.0313,0.0305,0.0292,0.0293,0.0264,0.0258,0.026,0.0229,0.0234,0.0215,0.0194,0.0196,0.0195,0.0188,0.0163,0.0187,0.019,0.0189,0.0137,0.0136,0.0135,0.0146,0.0146,0.0146,0,0,0.0338,0.0336,0.0347,0.034,0.0326,0.0313,0.0313,0.029,0.0284,0.0278,0.0258,0.0246,0.0231,0.0221,0.0212,0.0223,0.0181,0.0218,0.0245,0.0196,0.0195,0.0194,0.0143,0.0136,0.0221,0.0221,0.0221,0,0.0348,0.0363,0.0349,0.0356,0.0357,0.0326,0.0337,0.0325,0.0306,0.0303,0.0289,0.0254,0.024,0.0238,0.0245,0.0232,0.0195,0.0237,0.0201,0.0199,0.0197,0.0145,0.0137,0.0224,0.0224,0.0224,0.0223,0,0.0374,0.0388,0.0397,0.04,0.0399,0.0405,0.0389,0.0388,0.037,0.0349,0.0338,0.0309,0.0287,0.028,0.0269,0.0251,0.0227,0.0212,0.0195,0.0199,0.0144,0.0135,0.0228,0.0227,0.0226,0.0226,0,0,0.0392,0.0412,0.0415,0.0434,0.0424,0.0432,0.0438,0.0435,0.0438,0.0407,0.0402,0.0378,0.0347,0.0334,0.0312,0.0275,0.0228,0.0243,0.0239,0.0199,0.0113,0.0103,0.0092,0.0206,0.0205,0.0204,0.0081,0,0.0417,0.0452,0.045,0.049,0.051,0.0495,0.0505,0.0496,0.0475,0.0463,0.0419,0.0403,0.0372,0.0362,0.032,0.0255,0.0206,0.0262,0.0109,0.0104,0.01,0.0082,0.02,0.0074,0.0072,0.007,0.0069,0,0.044,0.0466,0.0508,0.0549,0.0556,0.0573,0.0588,0.0593,0.0561,0.054,0.0502,0.0456,0.041,0.0375,0.0253,0.0289,0.0205,0.0145,0.0138,0.0103,0.0077,0.0067,0.0052,0.0053,0.0055,0.0056,0.0057,0,0.0477,0.051,0.0554,0.0565,0.0596,0.0619,0.0634,0.0617,0.0625,0.0587,0.0571,0.0497,0.0459,0.035,0.0228,0.0233,0.008,0.0067,-0.0028,-0.003,-0.0008,-0.0005,-0.0038,-0.0038,-0.0037,-0.0037,-0.0037,0,0.0512,0.0549,0.0579,0.0616,0.0662,0.0665,0.0704,0.0703,0.0687,0.0689,0.0617,0.0587,0.0449,0.0345,0.023,0.0075,0.0072,-0.0031,-0.0064,0.0018,0.0025,-0.0015,-0.0011,-0.0042,-0.0041,-0.004,-0.0039,0,0.0542,0.0564,0.0628,0.0678,0.0691,0.0727,0.0763,0.0781,0.0761,0.0758,0.0746,0.0645,0.0507,0.036,0.0175,0.008,-0.0065,-0.0124,-0.0027,-0.0051,-0.0146,-0.0138,-0.0248,-0.0249,-0.025,-0.0251,-0.0252,0,0.0559,0.0595,0.0677,0.0714,0.0742,0.0785,0.0812,0.0819,0.0831,0.0789,0.0785,0.0659,0.0571,0.0306,0.0149,-0.0085,-0.0115,-0.0195,-0.0171,-0.0148,-0.0169,-0.0158,-0.0148,-0.0254,-0.0254,-0.0255,-0.0255,0,0.06,0.0634,0.0692,0.0757,0.0808,0.0847,0.0887,0.0899,0.0893,0.0881,0.0801,0.0658,0.0497,0.0297,0.0115,-0.0049,-0.0141,-0.0208,-0.0207,-0.0185,-0.0157,-0.0174,-0.0163,-0.0259,-0.0258,-0.0258,-0.0258,0,0.0636,0.0667,0.0743,0.0788,0.0849,0.0881,0.0906,0.0905,0.0909,0.0865,0.0834,0.0663,0.0564,0.0313,0.0149,-0.0014,-0.006,-0.0108,-0.0113,-0.011,-0.0028,0.0031,-0.0049,0,0,0,0,0,0.0666,0.0694,0.0754,0.0816,0.0871,0.0902,0.0936,0.0948,0.0945,0.0896,0.0864,0.0712,0.0452,0.0341,0.0173,0.0119,-0.0088,-0.0083,-0.0146,-0.0282,-0.0277,-0.0204,0,0,0,0,0,0,0.0689,0.0753,0.0758,0.0813,0.0855,0.0909,0.0938,0.094,0.0906,0.0884,0.0749,0.0677,0.0428,0.0555,0.0175,0.0124,0.0061,-0.0202,-0.0206,-0.0285,-0.0281,-0.0277,-0.02,0,0,0,0,0]}]]